This is the latest recevied weather packets stored in our database for station/object 9D9-WX. If no packets are shown the sender has not sent any weather packets the latest 10 day(s).
| Time | Temp. | Humidity | Pressure | Rain* | Wind** | Luminosity | Snow |
|---|---|---|---|---|---|---|---|
| 1777883423 | 8.89° C | 73% | 975.1 hPa | 0 mm | - | - | - |
| 1777882513 | 8.89° C | 73% | 975.1 hPa | 0 mm | - | - | - |
| 1777881633 | 8.89° C | 77% | 975.2 hPa | 0 mm | - | - | - |
| 1777880713 | 8.89° C | 74% | 976.2 hPa | 0 mm | - | - | - |
| 1777879826 | 8.89° C | 74% | 976.2 hPa | 0 mm | - | - | - |
| 1777878913 | 8.89° C | 74% | 976.1 hPa | 0 mm | - | - | - |
| 1777878029 | 8.89° C | 74% | 976.1 hPa | 0 mm | - | - | - |
| 1777877112 | 8.33° C | 75% | 977.5 hPa | 0 mm | - | - | - |
| 1777876228 | 8.33° C | 75% | 977.5 hPa | 0 mm | - | - | - |
| 1777875313 | 8.33° C | 75% | 977.5 hPa | 0 mm | - | - | - |
| 1777874434 | 8.33° C | 75% | 977.5 hPa | 0 mm | - | - | - |
| 1777873508 | 8.33° C | 74% | 978.3 hPa | 0 mm | - | - | - |
| 1777872625 | 8.33° C | 73% | 977.8 hPa | 0 mm | - | - | - |
| 1777871712 | 8.33° C | 73% | 977.8 hPa | 0 mm | - | - | - |
| 1777870834 | 8.33° C | 73% | 977.8 hPa | 0 mm | - | - | - |
| 1777869909 | 8.33° C | 75% | 978.3 hPa | 0 mm | - | - | - |
| 1777869030 | 8.33° C | 76% | 978.1 hPa | 0 mm | - | - | - |
| 1777868110 | 8.33° C | 76% | 978.1 hPa | 0 mm | - | - | - |
| 1777867235 | 8.33° C | 76% | 978.1 hPa | 0 mm | - | - | - |
| 1777866309 | 8.33° C | 73% | 978.7 hPa | 0 mm | - | - | - |
| 1777865428 | 8.33° C | 75% | 979 hPa | 0 mm | - | - | - |
| 1777864510 | 8.89° C | 75% | 979 hPa | 0 mm | - | - | - |
| 1777863631 | 8.89° C | 75% | 979 hPa | 0 mm | - | - | - |
| 1777862709 | 8.89° C | 69% | 978.7 hPa | 0 mm | - | - | - |
| 1777861823 | 8.89° C | 73% | 979 hPa | 0 mm | - | - | - |
* Rain latest hour (hover to see other rain measurements)
** Current wind speed in m/s (hover to see current wind gust speed)